Weather History for Council Bluffs, IA

Change the Weather History Date:

Sunday, April 7, 2013

  Actual Average Record
Temperature  
Mean Temperature 57 °F -  
Max Temperature 73 °F 57 °F 77 °F (1999)
Min Temperature 41 °F 38 °F 21 °F (2007)
Degree Days  
Heating Degree Days 8    
Growing Degree Days 7 (Base 50)    
Moisture  
Dew Point 41 °F    
Average Humidity 58    
Maximum Humidity 94    
Minimum Humidity 27    
Precipitation  
Precipitation 0.00 in - - ()
Sea Level Pressure  
Sea Level Pressure 29.76 in    
Wind  
Wind Speed 7 mph (SE)    
Max Wind Speed 23 mph    
Max Gust Speed 30 mph    
Visibility 10 miles    
Events Rain    
Averages and records for this station are not official NWS values.
T = Trace of Precipitation, MM = Missing Value Source: NWS Daily Summary

Daily Weather History Graph

Daily Weather History Graph

Search for Another Location

Airport:

Trip Planner

Search our weather history database for the weather conditions in past years. The results will help you decide how hot, cold, wet, or windy it might be!

Date:

Astronomy

Apr. 07, 2013 Rise Set
Actual Time 6:55 AM CDT 7:54 PM CDT
Civil Twilight 6:27 AM CDT 8:23 PM CDT
Nautical Twilight 5:54 AM CDT 8:56 PM CDT
Astronomical Twilight 5:19 AM CDT 9:31 PM CDT
Moon 5:15 AM CDT (4/7) 5:26 PM CDT (4/7)
Length of Visible Light 13h 55m
Length of Day
12h 59m
Waning Crescent, 8% of the Moon is Illuminated
Apr 7
Waning Crescent
Apr 10
New
Apr 18
First Quarter
Apr 25
Full
May 2
Last Quarter

Hourly Weather History & Observations

Time (CDT) Temp. Windchill Dew Point Humidity Pressure Visibility Wind Dir Wind Speed Gust Speed Precip Events Conditions
12:15 AM 55.4 °F - 39.2 °F 54% 29.79 in 10.0 mi Calm Calm - N/A   Clear
12:35 AM 57.2 °F - 39.2 °F 51% 29.79 in 10.0 mi WSW 4.6 mph - N/A   Clear
12:55 AM 55.4 °F - 39.2 °F 54% 29.80 in 10.0 mi Calm Calm - N/A   Clear
1:15 AM 55.4 °F - 39.2 °F 54% 29.81 in 10.0 mi SW 3.5 mph - N/A   Clear
1:35 AM 55.4 °F - 39.2 °F 54% 29.81 in 10.0 mi SW 4.6 mph - N/A   Clear
1:55 AM 51.8 °F - 39.2 °F 62% 29.81 in 10.0 mi Calm Calm - N/A   Clear
2:15 AM 48.2 °F - 39.2 °F 71% 29.81 in 10.0 mi Calm Calm - N/A   Partly Cloudy
2:35 AM 50.0 °F - 41.0 °F 71% 29.82 in 10.0 mi East 4.6 mph - N/A   Mostly Cloudy
2:55 AM 50.0 °F - 41.0 °F 71% 29.81 in 10.0 mi ENE 5.8 mph - N/A   Overcast
3:15 AM 50.0 °F - 39.2 °F 66% 29.81 in 10.0 mi ENE 8.1 mph - N/A   Overcast
3:35 AM 48.2 °F - 37.4 °F 66% 29.81 in 10.0 mi East 8.1 mph - N/A   Mostly Cloudy
3:55 AM 46.4 °F 41.9 °F 39.2 °F 76% 29.81 in 10.0 mi ESE 9.2 mph - N/A   Partly Cloudy
4:15 AM 46.4 °F 42.4 °F 39.2 °F 76% 29.81 in 10.0 mi East 8.1 mph - N/A   Mostly Cloudy
4:35 AM 46.4 °F 42.9 °F 39.2 °F 76% 29.81 in 10.0 mi East 6.9 mph - N/A   Mostly Cloudy
4:55 AM 44.6 °F 40.7 °F 39.2 °F 81% 29.81 in 10.0 mi East 6.9 mph - N/A   Mostly Cloudy
5:15 AM 44.6 °F 40.2 °F 37.4 °F 76% 29.82 in 10.0 mi East 8.1 mph - N/A   Partly Cloudy
5:35 AM 42.8 °F 38.6 °F 37.4 °F 81% 29.82 in 10.0 mi ENE 6.9 mph - N/A   Clear
5:55 AM 42.8 °F 39.3 °F 37.4 °F 81% 29.82 in 10.0 mi East 5.8 mph - N/A   Clear
6:15 AM 42.8 °F 39.3 °F 37.4 °F 81% 29.82 in 10.0 mi East 5.8 mph - N/A   Clear
6:35 AM 41.0 °F 36.4 °F 37.4 °F 87% 29.83 in 10.0 mi East 6.9 mph - N/A   Clear
6:55 AM 41.0 °F 37.1 °F 37.4 °F 87% 29.84 in 9.0 mi East 5.8 mph - N/A   Clear
7:15 AM 42.8 °F 38.6 °F 37.4 °F 81% 29.84 in 8.0 mi East 6.9 mph - N/A   Partly Cloudy
7:35 AM 42.8 °F 38.6 °F 37.4 °F 81% 29.84 in 8.0 mi East 6.9 mph - N/A   Clear
7:55 AM 42.8 °F 38.0 °F 37.4 °F 81% 29.85 in 8.0 mi ESE 8.1 mph - N/A   Partly Cloudy
8:15 AM 42.8 °F 37.0 °F 37.4 °F 81% 29.85 in 8.0 mi ESE 10.4 mph - N/A   Clear
8:35 AM 44.6 °F 39.7 °F 37.4 °F 76% 29.86 in 9.0 mi East 9.2 mph - N/A   Clear
8:55 AM 46.4 °F 41.1 °F 39.2 °F 76% 29.86 in 9.0 mi East 11.5 mph - N/A   Scattered Clouds
9:15 AM 46.4 °F 40.4 °F 39.2 °F 76% 29.85 in 10.0 mi ESE 13.8 mph - N/A   Partly Cloudy
9:35 AM 48.2 °F - 39.2 °F 71% 29.85 in 9.0 mi ESE 9.2 mph 18.4 mph N/A   Clear
9:55 AM 50.0 °F - 39.2 °F 66% 29.85 in 9.0 mi ESE 10.4 mph - N/A   Clear
10:15 AM 50.0 °F - 41.0 °F 71% 29.86 in 9.0 mi East 9.2 mph - N/A   Mostly Cloudy
10:55 AM 51.8 °F - 41.0 °F 67% 29.85 in 10.0 mi Variable 5.8 mph 18.4 mph N/A   Partly Cloudy
11:15 AM 53.6 °F - 42.8 °F 67% 29.85 in 10.0 mi SE 9.2 mph 17.3 mph N/A   Partly Cloudy
11:35 AM 55.4 °F - 42.8 °F 63% 29.84 in 10.0 mi SE 13.8 mph - N/A   Partly Cloudy
11:55 AM 59.0 °F - 42.8 °F 55% 29.83 in 10.0 mi SE 16.1 mph - N/A   Scattered Clouds
12:15 PM 60.8 °F - 42.8 °F 52% 29.83 in 10.0 mi SE 16.1 mph - N/A   Partly Cloudy
12:35 PM 60.8 °F - 42.8 °F 52% 29.82 in 10.0 mi ESE 13.8 mph 20.7 mph N/A   Scattered Clouds
12:55 PM 64.4 °F - 42.8 °F 45% 29.80 in 10.0 mi SE 16.1 mph - N/A   Mostly Cloudy
1:15 PM 64.4 °F - 42.8 °F 45% 29.79 in 10.0 mi SE 15.0 mph - N/A   Mostly Cloudy
1:35 PM 66.2 °F - 42.8 °F 43% 29.79 in 10.0 mi SE 12.7 mph 19.6 mph N/A   Mostly Cloudy
1:55 PM 68.0 °F - 42.8 °F 40% 29.77 in 10.0 mi SE 12.7 mph 18.4 mph N/A   Scattered Clouds
2:15 PM 69.8 °F - 42.8 °F 38% 29.76 in 10.0 mi SE 12.7 mph - N/A   Partly Cloudy
2:35 PM 71.6 °F - 41.0 °F 33% 29.75 in 10.0 mi SSE 11.5 mph 20.7 mph N/A   Partly Cloudy
2:55 PM 71.6 °F - 39.2 °F 31% 29.73 in 10.0 mi South 15.0 mph 25.3 mph N/A   Mostly Cloudy
3:15 PM 73.4 °F - 39.2 °F 29% 29.72 in 10.0 mi South 10.4 mph 20.7 mph N/A   Scattered Clouds
3:35 PM 73.4 °F - 37.4 °F 27% 29.71 in 10.0 mi South 17.3 mph 24.2 mph N/A   Scattered Clouds
3:55 PM 73.4 °F - 39.2 °F 29% 29.70 in 10.0 mi South 11.5 mph 19.6 mph N/A   Scattered Clouds
4:15 PM 71.6 °F - 39.2 °F 31% 29.69 in 10.0 mi SSW 16.1 mph 21.9 mph N/A   Mostly Cloudy
4:35 PM 69.8 °F - 39.2 °F 33% 29.70 in 10.0 mi SSW 16.1 mph 27.6 mph N/A   Light Drizzle
4:55 PM 69.8 °F - 39.2 °F 33% 29.69 in 10.0 mi SSW 10.4 mph 18.4 mph N/A   Partly Cloudy
5:15 PM 68.0 °F - 41.0 °F 37% 29.69 in 10.0 mi WSW 10.4 mph 21.9 mph N/A   Mostly Cloudy
5:35 PM 66.2 °F - 44.6 °F 46% 29.68 in 9.0 mi WNW 4.6 mph - N/A   Light Drizzle
5:55 PM 68.0 °F - 44.6 °F 43% 29.68 in 10.0 mi SSE 12.7 mph 20.7 mph N/A   Mostly Cloudy
6:15 PM 68.0 °F - 41.0 °F 37% 29.67 in 10.0 mi SSE 15.0 mph - N/A   Mostly Cloudy
6:35 PM 68.0 °F - 42.8 °F 40% 29.67 in 10.0 mi SSE 10.4 mph 16.1 mph N/A   Scattered Clouds
6:55 PM 66.2 °F - 42.8 °F 43% 29.66 in 10.0 mi South 5.8 mph - N/A   Mostly Cloudy
7:15 PM 66.2 °F - 42.8 °F 43% 29.65 in 10.0 mi ESE 6.9 mph - N/A   Mostly Cloudy
7:35 PM 64.4 °F - 42.8 °F 45% 29.65 in 10.0 mi SE 6.9 mph - N/A   Partly Cloudy
7:55 PM 62.6 °F - 42.8 °F 48% 29.64 in 10.0 mi SE 5.8 mph - N/A   Clear
8:15 PM 62.6 °F - 42.8 °F 48% 29.64 in 10.0 mi SSE 9.2 mph - N/A   Mostly Cloudy
8:35 PM 64.4 °F - 41.0 °F 42% 29.64 in 10.0 mi SE 8.1 mph - N/A   Overcast
8:55 PM 62.6 °F - 39.2 °F 42% 29.64 in 10.0 mi SE 9.2 mph - N/A   Overcast
9:15 PM 62.6 °F - 41.0 °F 45% 29.64 in 10.0 mi SE 8.1 mph - N/A   Overcast
9:35 PM 62.6 °F - 41.0 °F 45% 29.65 in 10.0 mi SE 6.9 mph - N/A   Overcast
9:55 PM 60.8 °F - 42.8 °F 52% 29.64 in 10.0 mi SE 6.9 mph - N/A   Overcast
10:15 PM 60.8 °F - 42.8 °F 52% 29.65 in 10.0 mi SSE 8.1 mph - N/A   Overcast
10:35 PM 62.6 °F - 42.8 °F 48% 29.67 in 10.0 mi SSW 13.8 mph - N/A   Overcast
10:55 PM 62.6 °F - 48.2 °F 59% 29.67 in 10.0 mi SSW 23.0 mph 29.9 mph N/A   Overcast
11:15 PM 59.0 °F - 50.0 °F 72% 29.67 in 10.0 mi SSW 19.6 mph 27.6 mph N/A Rain Light Rain
11:35 PM 57.2 °F - 51.8 °F 82% 29.67 in 10.0 mi SW 19.6 mph 27.6 mph N/A Rain Light Rain
11:55 PM 55.4 °F - 53.6 °F 94% 29.67 in 10.0 mi SSW 11.5 mph - N/A Rain Light Rain